User: anonymous   Login
Location: Unspecified
(0.0000°N, 0.0000°E)
Time: 04:35:19
(UTC+00:00)
Language:

TBA - TO BE ASSIGNED - Orbit

View from above orbital plane
View from above orbital plane
View from above satellite
View from above satellite

Ground track
Ground track

The orbit is defined by the following mean orbital elements,

1 67823U          26145.45151644 +.00000000 +00000-0 +47489-3 0 00002
2 67823  43.0043 193.5536 0001647 270.7739  89.2924 15.27591771    06
Epoch (UTC): 25 May 2026 10:50:11
Eccentricity: 0.0001647
inclination: 43.0043°
perigee height: 482 km
apogee height: 484 km
right ascension of ascending node: 193.5536°
argument of perigee: 270.7739°
revolutions per day: 15.27591771
mean anomaly at epoch: 89.2924°

The dashed part of the orbit path shows where the satellite is in the earth's shadow,  

DLR